Weather History for Provincetown, MA

Change the Weather History Date:

Tuesday, January 22, 2013

  Actual Average Record
Temperature  
Mean Temperature 24 °F -  
Max Temperature 30 °F 32 °F 54 °F (1957)
Min Temperature 19 °F 22 °F 6 °F (2000)
Degree Days  
Heating Degree Days 40    
Moisture  
Dew Point 13 °F    
Average Humidity 63    
Maximum Humidity 93    
Minimum Humidity 40    
Precipitation  
Precipitation 0.00 in - - ()
Sea Level Pressure  
Sea Level Pressure 29.86 in    
Wind  
Wind Speed 16 mph (WNW)    
Max Wind Speed 34 mph    
Max Gust Speed 46 mph    
Visibility 9 miles    
Events      
Averages and records for this station are not official NWS values.
T = Trace of Precipitation, MM = Missing Value Source: NWS Daily Summary

Daily Weather History Graph

Daily Weather History Graph

Search for Another Location

Airport:

Trip Planner

Search our weather history database for the weather conditions in past years. The results will help you decide how hot, cold, wet, or windy it might be!

Date:

Astronomy

Jan. 22, 2013 Rise Set
Actual Time 7:02 AM EST 4:43 PM EST
Civil Twilight 6:32 AM EST 5:13 PM EST
Nautical Twilight 5:57 AM EST 5:47 PM EST
Astronomical Twilight 5:24 AM EST 6:20 PM EST
Moon 1:02 PM EST (1/22) 3:21 AM EST (1/22)
Length of Visible Light 10h 41m
Length of Day
9h 40m
Waxing Gibbous, 82% of the Moon is Illuminated
Jan 22
Waxing Gibbous
Jan 26
Full
Feb 3
Last Quarter
Feb 10
New
Feb 17
First Quarter

Hourly Weather History & Observations

Time (EST) Temp. Windchill Dew Point Humidity Pressure Visibility Wind Dir Wind Speed Gust Speed Precip Events Conditions
12:15 AM 30.2 °F 21.9 °F 26.6 °F 86% 29.77 in 9.0 mi NNE 9.2 mph 16.1 mph N/A   Overcast
12:35 AM 30.2 °F 22.6 °F 24.8 °F 80% 29.76 in 7.0 mi NNW 8.1 mph - N/A   Overcast
12:55 AM 28.4 °F 19.7 °F 26.6 °F 93% 29.76 in 2.5 mi NW 9.2 mph - N/A   Mostly Cloudy
1:15 AM 28.4 °F 20.4 °F 24.8 °F 86% 29.76 in 3.0 mi NNW 8.1 mph - N/A   Mostly Cloudy
1:35 AM 28.4 °F 20.4 °F 26.6 °F 93% 29.76 in 1.8 mi NW 8.1 mph - N/A   Overcast
1:55 AM 28.4 °F 18.0 °F 24.8 °F 86% 29.76 in 2.5 mi NW 12.7 mph - N/A   Mostly Cloudy
2:15 AM 26.6 °F 16.8 °F 24.8 °F 93% 29.76 in 2.5 mi NW 10.4 mph - N/A   Mostly Cloudy
2:35 AM 28.4 °F 19.7 °F 26.6 °F 93% 29.76 in 4.0 mi NW 9.2 mph - N/A   Overcast
2:55 AM 26.6 °F 17.5 °F 23.0 °F 86% 29.75 in 5.0 mi NW 9.2 mph - N/A   Overcast
3:35 AM 26.6 °F 19.1 °F 24.8 °F 93% 29.73 in 4.0 mi WNW 6.9 mph - N/A   Overcast
3:55 AM 28.4 °F 19.1 °F 24.8 °F 86% 29.72 in 5.0 mi WNW 10.4 mph - N/A   Overcast
4:15 AM 28.4 °F 18.0 °F 26.6 °F 93% 29.72 in 3.0 mi WNW 12.7 mph 17.3 mph N/A   Mostly Cloudy
4:35 AM 28.4 °F 17.0 °F 24.8 °F 86% 29.72 in 9.0 mi West 15.0 mph - N/A   Mostly Cloudy
4:55 AM 26.6 °F 9.3 °F 24.8 °F 93% 29.73 in 1.8 mi WNW 34.5 mph 46.0 mph N/A   Overcast
5:15 AM 26.6 °F 12.7 °F 24.8 °F 93% 29.73 in 1.8 mi West 20.7 mph 25.3 mph N/A   Mostly Cloudy
6:15 AM 26.6 °F 12.0 °F 17.6 °F 69% 29.74 in 10.0 mi WNW 23.0 mph 29.9 mph N/A   Overcast
6:35 AM 26.6 °F 12.0 °F 21.2 °F 80% 29.75 in 10.0 mi West 23.0 mph 28.8 mph N/A   Overcast
6:55 AM 26.6 °F 12.0 °F 19.4 °F 74% 29.76 in 10.0 mi West 23.0 mph 29.9 mph N/A   Overcast
7:15 AM 26.6 °F 11.4 °F 19.4 °F 74% 29.77 in 10.0 mi West 25.3 mph 32.2 mph N/A   Overcast
7:35 AM 26.6 °F 12.0 °F 19.4 °F 74% 29.77 in 10.0 mi West 23.0 mph 33.4 mph N/A   Overcast
7:55 AM 26.6 °F 11.7 °F 17.6 °F 69% 29.78 in 10.0 mi WNW 24.2 mph 29.9 mph N/A   Mostly Cloudy
8:35 AM 26.6 °F 12.0 °F 15.8 °F 64% 29.79 in 10.0 mi WNW 23.0 mph 34.5 mph N/A   Overcast
8:55 AM 26.6 °F 12.0 °F 17.6 °F 69% 29.81 in 10.0 mi WNW 23.0 mph 34.5 mph N/A   Overcast
9:15 AM 24.8 °F 9.0 °F 17.6 °F 74% 29.82 in 10.0 mi WNW 25.3 mph 34.5 mph N/A   Overcast
9:35 AM 24.8 °F 8.4 °F 17.6 °F 74% 29.83 in 10.0 mi West 27.6 mph 33.4 mph N/A   Overcast
9:55 AM 24.8 °F 9.3 °F 17.6 °F 74% 29.83 in 10.0 mi WNW 24.2 mph 38.0 mph N/A   Overcast
10:15 AM 24.8 °F 9.6 °F 15.8 °F 69% 29.84 in 10.0 mi WNW 23.0 mph 32.2 mph N/A   Overcast
10:35 AM 24.8 °F 10.3 °F 12.2 °F 59% 29.84 in 10.0 mi WNW 20.7 mph 33.4 mph N/A   Overcast
11:15 AM 26.6 °F 12.0 °F 12.2 °F 55% 29.83 in 10.0 mi West 23.0 mph 32.2 mph N/A   Overcast
11:35 AM 26.6 °F 12.7 °F 14.0 °F 59% 29.84 in 10.0 mi WNW 20.7 mph 27.6 mph N/A   Overcast
11:55 AM 24.8 °F 10.7 °F 14.0 °F 64% 29.83 in 10.0 mi WNW 19.6 mph 25.3 mph N/A   Overcast
12:15 PM 24.8 °F 10.3 °F 10.4 °F 54% 29.84 in 10.0 mi WNW 20.7 mph 26.5 mph N/A   Overcast
12:35 PM 24.8 °F 11.5 °F 10.4 °F 54% 29.84 in 10.0 mi WNW 17.3 mph 29.9 mph N/A   Overcast
12:55 PM 24.8 °F 9.6 °F 12.2 °F 59% 29.84 in 10.0 mi West 23.0 mph 28.8 mph N/A   Overcast
1:15 PM 26.6 °F 13.1 °F 10.4 °F 51% 29.85 in 10.0 mi West 19.6 mph - N/A   Mostly Cloudy
1:35 PM 26.6 °F 13.8 °F 6.8 °F 43% 29.85 in 10.0 mi West 17.3 mph 29.9 mph N/A   Mostly Cloudy
1:55 PM 24.8 °F 11.5 °F 6.8 °F 46% 29.86 in 10.0 mi West 17.3 mph 21.9 mph N/A   Partly Cloudy
2:35 PM 24.8 °F 11.5 °F 6.8 °F 46% 29.87 in 10.0 mi West 17.3 mph 23.0 mph N/A   Mostly Cloudy
2:55 PM 24.8 °F 11.5 °F 8.6 °F 50% 29.88 in 10.0 mi West 17.3 mph 24.2 mph N/A   Mostly Cloudy
3:15 PM 24.8 °F 12.4 °F 5.0 °F 43% 29.89 in 10.0 mi West 15.0 mph 24.2 mph N/A   Overcast
3:35 PM 24.8 °F 11.1 °F 3.2 °F 40% 29.89 in 10.0 mi WNW 18.4 mph 25.3 mph N/A   Mostly Cloudy
3:55 PM 24.8 °F 11.5 °F 3.2 °F 40% 29.89 in 10.0 mi WNW 17.3 mph 25.3 mph N/A   Mostly Cloudy
4:15 PM 24.8 °F 11.1 °F 6.8 °F 46% 29.90 in 10.0 mi West 18.4 mph 28.8 mph N/A   Mostly Cloudy
4:35 PM 24.8 °F 11.5 °F 6.8 °F 46% 29.91 in 10.0 mi WNW 17.3 mph 27.6 mph N/A   Overcast
4:55 PM 23.0 °F 9.2 °F 5.0 °F 46% 29.92 in 10.0 mi West 17.3 mph 24.2 mph N/A   Overcast
5:35 PM 23.0 °F 9.2 °F 5.0 °F 46% 29.94 in 10.0 mi WNW 17.3 mph 25.3 mph N/A   Overcast
5:55 PM 23.0 °F 10.1 °F 6.8 °F 50% 29.95 in 10.0 mi WNW 15.0 mph - N/A   Overcast
6:15 PM 23.0 °F 10.1 °F 8.6 °F 54% 29.96 in 10.0 mi West 15.0 mph 24.2 mph N/A   Overcast
6:35 PM 23.0 °F 8.3 °F 3.2 °F 43% 29.97 in 10.0 mi West 19.6 mph 26.5 mph N/A   Overcast
6:55 PM 23.0 °F 8.3 °F 5.0 °F 46% 29.98 in 10.0 mi WNW 19.6 mph 26.5 mph N/A   Overcast
7:15 PM 21.2 °F 4.5 °F 1.4 °F 42% 29.99 in 10.0 mi West 24.2 mph 32.2 mph N/A   Overcast
7:35 PM 21.2 °F 5.2 °F 8.6 °F 58% 29.99 in 10.0 mi WNW 21.9 mph 29.9 mph N/A   Overcast
8:15 PM 21.2 °F 4.9 °F 5.0 °F 50% 30.01 in 10.0 mi West 23.0 mph 31.1 mph N/A   Mostly Cloudy
8:35 PM 21.2 °F 5.6 °F 3.2 °F 46% 30.01 in 10.0 mi WNW 20.7 mph 31.1 mph N/A   Mostly Cloudy
8:55 PM 21.2 °F 4.5 °F 3.2 °F 46% 30.02 in 10.0 mi WNW 24.2 mph 31.1 mph N/A   Mostly Cloudy
9:15 PM 19.4 °F 3.2 °F 3.2 °F 49% 30.02 in 10.0 mi West 20.7 mph 31.1 mph N/A   Mostly Cloudy
9:35 PM 19.4 °F 4.1 °F 3.2 °F 49% 30.03 in 10.0 mi West 18.4 mph 27.6 mph N/A   Overcast
9:55 PM 19.4 °F 3.2 °F 3.2 °F 49% 30.04 in 10.0 mi West 20.7 mph 31.1 mph N/A   Overcast
10:35 PM 19.4 °F 4.5 °F 3.2 °F 49% 30.05 in 10.0 mi West 17.3 mph 27.6 mph N/A   Overcast
10:55 PM 19.4 °F 5.5 °F 3.2 °F 49% 30.05 in 10.0 mi WNW 15.0 mph 25.3 mph N/A   Overcast
11:15 PM 19.4 °F 5.0 °F 3.2 °F 49% 30.05 in 10.0 mi WNW 16.1 mph 26.5 mph N/A   Overcast
11:35 PM 19.4 °F 4.1 °F 3.2 °F 49% 30.05 in 10.0 mi WNW 18.4 mph 28.8 mph N/A   Overcast
11:55 PM 19.4 °F 3.2 °F 6.8 °F 58% 30.05 in 10.0 mi West 20.7 mph 27.6 mph N/A   Overcast